Regional Weather Roundup
Issued by NWS

Home | Current Version | Previous Version | Text Only | Print | Product List | Glossary On
Versions: 1 2 3 4 5 6 7 8 9 10 11 12 13 14 15 16 17 18 19 20 21 22 23 24 25 26 27 28 29 30 31 32 33 34 35 36 37 38 39 40 41 42 43 44 45 46 47 48 49
000
ASCA42 TJSJ 010810
RWRPR
PUERTO RICO/U.S. VIRGIN ISLANDS HOURLY WEATHER ROUNDUP
NATIONAL WEATHER SERVICE SAN JUAN PR
400 AM AST SAT AUG 01 2015

PRZ001-004-010900-
PUERTO RICO

CITY           SKY/WX    TMP DP  RH WIND       PRES   REMARKS
SAN JUAN LMM   PTCLDY    81  73  78 E6        30.02S
AGUADILLA      CLEAR     75  72  88 E3        30.03
$$

PRZ006-007-010900-
U.S. VIRGIN ISLANDS

CITY           SKY/WX    TMP DP  RH WIND       PRES   REMARKS
CHARLOTTE AMA  CLEAR     81  73  78 E7        30.01S
CHRISTIANSTED  CLEAR     81  72  74 E10       30.01S
$$

HOURLY WEATHER ROUNDUP FOR THE NEWS MEDIA

CITY           SKY/WX    TMP DP  RH WIND       PRES   REMARKS
ORLANDO        CLOUDY    77  73  87 S10       29.97S
NEW YORK       PTCLDY    76  63  64 SW10      29.81S
NEWARK         PTCLDY    75  60  59 SW10      29.79F
CHICAGO        FAIR      67  53  61 W8        29.98F
HARTFORD       CLEAR     61  60  97 CALM      29.77F
BOSTON         CLEAR     71  55  56 SW7       29.76F
DALLAS         MOCLDY    83  59  44 E6        30.01S
PHILADELPHIA   MOCLDY    75  66  73 SW7       29.83F
LOS ANGELES    CLOUDY    67  65  93 W6        29.97S FOG
WASHINGTON DC  MOCLDY    69  65  86 CALM      29.88F



USA.gov is the U.S. government's official web portal to all federal, state and local government web resources and services.